Theta_e
324 324 324 322 322 321 323 323 323 325 324 323 322 321 322 323 323 314 310 319 324 330 327 319 318 316 315 311 315 309 300 295 298 300 302 301 300 303 305 307 309 314 312 315 322
323 324 324 324 324 323 323 323 323 324 324 322 321 320 320 322 314 309 319 329 332 329 316 314 312 315 306 307 310 303 296 299 304 304 302 303 300 302 301 302 304 312 318 320 321
322 323 323 324 324 324 323 323 323 324 323 322 320 319 319 318 300 299 324 326 329 327 318 317 315 314 304 304 307 304 297 302 305 306 307 306 303 306 302 299 302 307 316 318 318
321 321 322 323 323 323 323 323 324 323 323 321 319 319 320 314 282 312 326 332 331 321 316 313 313 307 302 299 303 300 306 304 304 305 305 303 306 304 304 305 308 308 319 319 317
320 320 320 321 322 323 323 323 323 323 322 321 319 319 313 302 300 314 324 327 320 316 311 309 308 307 302 302 302 299 301 304 304 304 303 304 305 304 305 309 308 310 319 318 318
318 319 319 319 320 321 322 322 323 322 322 321 318 320 306 289 306 313 318 318 316 314 311 312 307 309 305 302 300 301 301 303 304 304 303 302 302 304 304 306 307 308 311 316 318
317 318 318 319 320 320 321 322 322 322 322 320 319 313 303 294 309 309 314 317 317 314 308 312 312 308 305 301 304 303 298 300 301 302 302 303 298 300 304 304 305 305 305 306 311
316 317 316 319 319 320 321 321 321 321 322 320 319 308 293 307 309 307 308 314 317 317 314 313 313 310 307 305 302 297 297 291 297 301 302 301 291 299 302 302 302 302 301 302 303
315 316 316 317 318 319 320 320 320 321 321 318 308 301 294 310 300 304 308 311 313 314 314 315 312 304 303 297 292 293 287 291 294 301 297 298 292 300 302 300 299 300 301 301 303
314 315 316 316 317 318 319 319 319 318 315 312 310 298 300 297 302 304 306 308 309 309 306 305 304 297 294 292 285 287 287 289 291 294 296 294 293 297 300 299 299 300 300 301 302
314 314 315 316 316 318 315 310 306 302 305 298 298 297 300 302 307 302 308 308 308 304 294 298 295 291 295 293 293 291 290 290 292 297 293 292 292 295 297 297 298 299 298 300 301
313 314 314 315 316 317 311 304 304 305 296 302 302 299 302 303 297 302 309 302 301 294 296 294 290 293 296 295 294 292 288 287 293 296 293 291 290 294 296 296 297 298 299 300 300
313 313 314 314 315 311 305 305 307 306 295 296 300 300 300 300 297 297 304 301 296 293 294 289 290 296 295 293 292 291 290 287 289 293 293 289 287 289 293 293 296 297 299 300 299
312 313 313 314 308 306 302 308 308 307 288 290 293 298 299 300 293 302 306 301 295 291 292 292 296 294 292 291 293 289 294 293 291 288 282 288 279 285 289 292 293 294 294 294 295
311 312 313 314 305 302 304 307 307 302 275 290 292 303 298 295 295 296 304 300 291 291 292 287 290 290 290 291 294 290 295 293 291 287 284 281 281 282 286 287 290 293 294 294 296
311 311 312 309 306 305 307 305 302 284 275 286 292 290 291 294 294 296 297 301 298 291 290 289 293 292 291 294 295 296 292 291 292 287 280 283 281 280 284 286 288 291 292 295 298
310 310 309 308 300 307 306 300 283 277 286 284 287 289 289 290 291 292 291 291 286 283 284 288 289 291 294 290 292 295 288 276 275 279 277 282 281 285 288 291 290 292 293 294 297
310 310 308 306 308 307 303 288 277 281 280 286 286 288 286 290 289 289 290 287 291 285 281 282 280 289 292 291 288 290 289 277 271 274 276 283 279 284 291 293 294 294 293 294 294
310 304 302 304 307 306 294 280 281 282 284 284 287 284 285 289 288 289 288 287 290 289 281 279 279 288 290 294 293 287 286 288 280 277 274 279 282 288 292 292 292 292 294 292 292
302 299 297 305 307 301 288 283 284 286 286 287 281 285 282 286 285 287 287 290 288 292 290 286 280 287 290 293 293 290 291 283 284 274 271 277 279 282 286 289 292 292 294 290 291
299 291 299 306 305 293 283 284 283 287 288 284 281 283 285 285 286 285 284 288 292 290 292 288 284 283 289 287 286 289 288 287 286 280 275 272 277 285 288 290 289 290 293 293 294
295 284 301 305 287 286 284 285 290 286 288 287 285 283 283 286 286 285 284 287 293 292 288 289 285 278 283 287 291 292 289 289 282 278 280 279 279 288 288 289 290 290 291 293 294
287 290 301 299 282 283 284 285 286 287 287 286 284 286 286 285 283 287 286 290 291 291 288 290 284 274 276 283 286 286 290 290 290 284 280 278 281 289 288 291 292 293 293 293 292
289 284 289 292 286 283 280 283 283 289 289 289 286 287 285 284 286 285 285 288 291 292 295 294 282 281 277 280 284 284 286 289 288 283 283 283 285 285 287 290 290 292 293 293 292
285 282 286 282 283 282 282 282 283 282 287 288 286 286 284 280 284 283 287 286 289 294 292 291 278 284 285 284 285 284 286 287 285 287 282 285 285 289 289 289 290 292 293 293 291
283 284 283 282 286 284 284 281 279 282 285 284 284 286 286 282 285 283 285 287 286 288 289 289 279 282 281 284 285 280 284 286 287 287 287 287 286 293 292 291 290 292 293 292 292
286 285 285 287 284 283 278 279 281 284 284 286 287 285 285 287 288 288 289 290 289 288 287 286 279 278 278 283 281 278 283 285 286 289 287 283 289 291 290 290 291 292 293 293 292
Wind_Speed
16 16 15 13 12 11 9 8 6 7 6 3 2 5 7 10 11 4 4 2 3 7 7 6 4 5 3 3 3 2 4 3 3 3 4 2 2 1 1 4 2 2 4 3 9
9 13 16 15 12 11 10 9 7 5 5 4 1 4 7 9 3 6 9 9 4 8 5 5 4 7 3 1 2 5 4 9 4 4 1 2 1 1 2 2 2 2 3 5 8
11 8 10 15 14 13 11 10 8 7 6 4 2 1 5 5 3 6 4 8 7 5 1 1 2 1 1 1 3 4 5 4 3 1 4 1 2 2 5 3 5 5 5 7 5
13 11 10 9 13 13 13 11 10 8 7 4 2 1 2 1 5 3 7 6 7 2 2 3 2 2 3 3 2 3 5 3 3 2 2 3 3 3 3 3 3 4 6 7 9
14 12 12 11 10 12 14 12 11 9 9 6 4 2 1 1 8 5 6 5 4 2 1 1 2 3 3 3 1 3 4 5 3 2 3 2 6 5 5 7 2 1 6 9 8
16 13 13 13 12 11 14 14 12 11 10 8 6 5 2 3 2 8 2 1 2 2 1 2 2 2 2 2 5 3 2 0 1 4 3 4 4 3 4 4 3 5 6 8 9
16 15 14 13 12 11 12 15 14 12 11 12 10 2 1 11 1 6 4 2 3 4 3 2 1 3 3 3 3 3 3 2 2 3 4 5 6 9 6 1 6 9 7 8 10
15 17 17 14 14 12 12 14 14 13 12 11 9 2 6 4 3 6 4 3 1 2 0 1 1 2 2 3 4 2 3 3 2 4 5 7 6 6 7 7 10 10 9 8 8
15 15 17 16 15 12 11 13 15 13 12 12 4 3 8 5 4 6 4 1 1 2 3 3 2 3 1 3 3 3 3 7 6 6 2 6 2 5 6 7 9 9 9 7 9
14 17 18 17 15 13 10 6 14 12 9 3 3 1 4 4 2 3 3 0 1 4 2 2 2 2 2 4 7 6 3 3 5 2 2 6 8 9 11 5 10 9 9 9 10
16 17 18 18 18 15 9 3 6 7 9 5 9 4 2 2 3 2 4 3 1 3 5 3 9 14 15 3 4 4 4 6 3 5 3 8 9 10 11 8 9 9 9 12 13
19 18 19 20 19 18 7 5 5 7 7 7 1 6 1 0 3 2 7 6 5 7 5 3 12 7 3 4 3 3 2 3 6 4 3 7 11 12 12 9 10 10 11 13 10
21 19 19 22 19 13 10 16 6 3 5 6 3 5 4 2 3 7 10 5 5 6 7 6 2 13 6 3 5 5 8 3 5 7 4 7 10 9 8 4 6 9 13 12 12
24 21 21 20 10 7 8 8 4 3 3 6 7 6 4 4 4 6 7 5 3 9 4 8 9 5 5 6 6 12 6 4 3 4 4 3 10 5 5 8 6 12 10 10 10
25 24 23 25 7 12 8 7 6 4 9 10 10 4 6 9 6 5 5 4 6 6 6 7 5 10 9 5 7 8 6 8 4 4 5 1 4 7 3 6 10 12 11 9 8
27 26 25 17 5 9 14 11 5 7 13 8 8 10 9 6 4 3 4 4 3 3 1 6 0 4 7 5 8 2 3 3 2 1 8 8 5 5 4 6 5 6 8 6 7
30 28 22 12 9 15 15 11 9 13 5 9 8 10 14 12 7 7 8 15 8 9 9 4 8 1 2 5 2 8 5 1 2 5 7 1 6 12 7 11 8 10 9 6 4
31 28 21 12 9 18 10 10 16 7 9 3 7 10 14 12 9 6 11 12 13 2 4 9 4 14 9 9 8 12 8 6 8 5 4 2 10 8 8 10 9 9 7 6 5
30 14 11 12 16 11 14 12 15 16 11 11 13 12 8 10 9 7 12 15 15 14 8 7 7 2 3 6 12 7 15 7 4 1 2 6 8 9 10 13 9 5 4 5 7
14 12 14 16 18 14 13 23 6 3 10 10 10 14 14 17 10 14 13 12 10 20 4 6 2 5 12 4 7 7 7 5 4 4 5 5 6 9 8 8 8 7 5 5 5
11 9 12 19 14 12 11 10 5 5 9 8 7 9 13 13 13 14 8 6 18 15 14 5 4 3 7 11 17 8 8 6 5 6 5 2 7 9 9 9 9 8 8 9 7
8 8 15 15 13 7 16 8 8 7 3 4 6 7 11 17 15 14 15 12 14 14 19 7 3 5 9 2 4 18 15 13 7 7 6 1 9 3 5 0 5 7 4 8 7
8 5 12 15 12 7 1 4 3 6 6 6 5 5 4 18 10 13 9 5 8 15 18 14 5 1 6 4 2 10 15 15 16 2 12 8 12 2 3 5 4 8 6 6 6
5 7 5 6 2 5 8 5 6 2 3 5 4 6 6 9 9 17 13 4 10 14 10 17 4 11 14 5 7 9 10 17 14 11 19 12 22 4 1 6 1 3 6 7 6
3 1 3 11 6 8 3 7 8 5 2 1 1 6 9 6 16 5 15 4 5 12 10 12 8 13 18 2 2 5 17 16 19 23 14 23 20 20 11 10 8 7 5 6 7
7 6 2 6 12 10 6 9 10 6 10 6 4 5 3 7 11 18 7 12 9 6 14 6 7 8 15 13 8 4 6 14 20 26 19 28 23 24 9 4 7 9 8 9 9
1 3 7 12 12 11 5 6 7 10 1 2 13 4 6 12 0 1 3 6 7 11 14 12 7 4 12 15 4 7 18 20 15 18 15 19 31 5 10 10 12 12 11 13 10
Wind_Direction
230 217 219 216 216 215 219 210 217 206 192 223 310 349 347 341 328 338 270 253 305 332 337 320 1 344 18 16 33 108 70 186 222 198 274 322 123 341 103 117 78 57 145 293 136
243 228 218 213 214 217 213 214 210 206 177 208 261 337 336 344 323 273 254 278 308 335 20 33 7 344 29 31 25 101 151 211 208 180 249 342 70 173 105 99 25 54 38 86 117
224 232 228 223 213 208 212 209 204 194 202 209 202 284 336 333 343 256 328 273 250 314 27 329 296 312 120 358 179 158 197 209 182 345 8 340 125 291 156 204 194 201 168 148 148
218 214 220 224 220 214 204 203 200 195 200 204 194 235 337 323 214 295 336 331 164 211 37 345 343 119 192 192 233 158 208 187 179 54 17 326 317 307 195 184 102 30 171 164 173
222 215 213 211 216 218 209 198 202 194 188 186 178 158 57 96 253 300 357 38 59 51 59 332 248 159 191 197 242 217 198 188 197 176 237 292 256 252 253 241 182 18 159 195 200
226 215 212 214 209 212 209 199 195 194 187 182 167 128 103 231 245 357 303 48 58 101 217 172 288 294 251 246 167 289 232 173 216 199 227 192 242 127 275 284 276 161 206 216 219
233 219 214 212 210 213 212 199 191 189 182 181 159 129 210 237 109 340 354 259 178 161 168 214 283 355 13 309 236 298 329 336 214 210 242 163 272 216 205 211 274 285 256 231 235
234 229 218 209 207 212 211 198 194 180 180 180 151 116 239 257 334 301 342 314 99 145 129 338 265 293 238 290 18 133 49 359 251 200 257 140 248 245 193 200 245 254 256 267 246
234 227 218 210 204 202 210 210 188 182 172 137 107 140 263 311 193 241 147 237 353 100 211 292 138 201 299 127 30 350 225 224 307 216 264 183 232 255 293 209 253 268 266 259 279
235 229 216 210 205 200 200 210 183 140 139 104 58 76 264 226 225 162 157 264 334 128 114 143 177 184 75 139 202 211 222 256 229 303 180 272 272 277 280 247 243 252 263 272 263
225 226 220 207 202 201 185 165 176 177 181 175 177 209 13 246 103 165 145 120 241 134 156 206 207 212 211 201 204 155 183 231 298 265 262 241 261 267 272 284 266 248 245 257 258
219 218 219 212 198 197 159 217 174 137 152 218 327 235 118 147 117 185 134 173 168 195 141 143 227 213 209 201 234 212 228 263 289 276 217 278 267 263 258 249 242 244 250 249 254
212 215 208 217 202 191 193 202 176 149 93 209 187 227 244 148 205 198 157 177 177 191 188 185 247 189 183 184 199 225 232 225 238 321 283 303 271 237 262 235 251 258 250 259 254
208 209 201 207 203 170 196 153 193 108 201 178 199 232 192 153 257 188 170 146 234 196 182 226 240 144 177 208 162 247 184 194 247 331 261 11 291 250 243 263 251 255 255 250 269
207 206 202 192 143 187 151 137 164 73 221 164 161 153 183 167 152 227 176 70 172 187 173 225 192 199 214 192 179 232 172 211 229 248 304 194 292 276 317 278 264 258 263 261 276
204 200 203 192 196 151 134 136 92 172 216 165 146 170 150 176 163 102 127 101 151 199 193 218 293 172 205 172 172 207 225 159 93 100 257 206 175 260 226 220 262 264 275 250 310
197 193 194 175 184 143 136 149 200 207 151 167 169 169 180 170 174 163 164 184 168 186 215 190 235 244 134 163 122 197 152 299 283 217 235 354 207 252 274 257 233 272 286 304 49
194 184 194 185 164 148 157 198 197 134 186 153 160 147 188 147 204 164 154 193 217 131 127 197 226 202 187 199 185 198 178 169 200 209 242 139 235 251 244 277 262 262 268 265 194
185 178 182 182 163 180 175 200 220 171 157 142 140 166 181 186 189 160 194 204 200 189 178 170 253 199 194 168 167 191 209 177 96 23 52 228 292 291 263 279 277 265 276 228 154
178 168 189 166 171 185 194 211 165 175 109 141 155 181 175 177 174 192 177 203 209 196 202 203 233 202 203 147 224 186 150 174 181 210 236 256 265 236 298 280 262 273 206 189 128
170 156 167 159 171 191 220 201 146 221 138 140 148 160 186 171 185 191 201 234 200 190 184 165 145 329 119 204 195 185 202 203 180 172 202 266 257 216 233 274 273 256 215 161 154
143 159 158 152 185 185 221 161 147 155 246 129 118 114 179 183 194 193 211 213 195 161 194 178 148 194 213 283 243 223 220 201 200 212 241 263 256 274 198 317 88 37 105 130 131
113 105 161 168 193 161 106 111 74 133 176 154 153 145 173 180 190 197 203 222 179 179 173 171 193 87 334 339 213 210 216 216 221 76 212 206 258 273 231 118 106 116 115 130 142
110 129 126 175 360 142 146 120 126 301 148 85 127 120 113 177 202 189 218 219 182 200 171 166 156 204 218 217 149 211 197 210 211 229 238 228 250 250 123 139 163 145 173 179 176
69 159 172 171 163 123 133 109 149 130 127 42 247 184 158 143 193 198 209 181 203 192 184 182 206 212 238 357 183 216 214 209 212 231 223 242 243 244 236 226 222 224 197 191 202
126 151 121 106 141 127 141 175 152 158 161 185 221 165 120 160 183 204 160 206 199 175 192 211 243 183 246 231 212 224 209 214 218 227 233 244 253 250 225 200 195 219 208 209 215
17 21 98 143 150 166 187 161 180 133 298 182 190 136 179 226 148 1 235 275 254 179 199 195 172 144 238 222 150 233 226 214 224 226 217 228 239 201 221 203 206 210 211 214 212